Rogers, AR

3:43 PM CDT on August 29, 2016 (GMT -0500)
Rogers Municipal-Carter

Weather History for KROG - May, 2013

Change the Weather History Date:

Thursday, May 2, 2013

  Actual Average Record
Temperature  
Mean Temperature 48 °F -  
Max Temperature 62 °F 70 °F 84 °F (2012)
Min Temperature 33 °F 51 °F 33 °F (2013)
Degree Days  
Heating Degree Days 18    
Moisture  
Dew Point 45 °F    
Average Humidity 89    
Maximum Humidity 96    
Minimum Humidity 80    
Precipitation  
Precipitation 0.56 in - - ()
Sea Level Pressure  
Sea Level Pressure 30.19 in    
Wind  
Wind Speed 8 mph (NNW)    
Max Wind Speed 15 mph    
Max Gust Speed 21 mph    
Visibility 8 miles    
Events Rain , Snow    
Averages and records for this station are not official NWS values.
T = Trace of Precipitation, MM = Missing Value Source: NWS Daily Summary

Daily Weather History Graph

Daily Weather History Graph

Search for Another Location

Airport or City:

Trip Planner

Search our weather history database for the weather conditions in past years. The results will help you decide how hot, cold, wet, or windy it might be!

Date:

Astronomy

May. 02, 2013 Rise Set
Actual Time 6:21 AM CDT 8:05 PM CDT
Civil Twilight 5:54 AM CDT 8:33 PM CDT
Nautical Twilight 5:20 AM CDT 9:06 PM CDT
Astronomical Twilight 4:45 AM CDT 9:42 PM CDT
Moon 1:56 AM CDT (5/2) 1:07 PM CDT (5/2)
Length of Visible Light 14h 39m
Length of Day
13h 43m
Waning Gibbous, 47% of the Moon is Illuminated
May 2
Waning Gibbous
May 9
New
May 17
First Quarter
May 24
Full
May 31
Last Quarter

Hourly Weather History & Observations

Time (CDT) Temp. Windchill Dew Point Humidity Pressure Visibility Wind Dir Wind Speed Gust Speed Precip Events Conditions
12:57 AM 62.1 °F - 57.0 °F 84% 30.05 in 10.0 mi SSE 6.9 mph - N/A   Clear
1:57 AM 61.0 °F - 57.0 °F 87% 30.05 in 10.0 mi SSE 5.8 mph - N/A   Clear
2:57 AM 57.9 °F - 55.9 °F 93% 30.07 in 10.0 mi Calm Calm - N/A   Clear
3:57 AM 57.9 °F - 55.9 °F 93% 30.09 in 10.0 mi Calm Calm - N/A   Mostly Cloudy
4:12 AM 57.2 °F - 55.4 °F 94% 30.12 in 10.0 mi NNW 3.5 mph - N/A   Overcast
4:42 AM 57.2 °F - 55.4 °F 94% 30.12 in 10.0 mi North 3.5 mph - N/A   Overcast
4:57 AM 59.0 °F - 57.0 °F 93% 30.09 in 10.0 mi North 8.1 mph - N/A   Overcast
5:05 AM 59.0 °F - 57.2 °F 94% 30.13 in 10.0 mi NNW 8.1 mph - N/A   Overcast
5:11 AM 59.0 °F - 57.2 °F 94% 30.13 in 10.0 mi NNW 8.1 mph - N/A   Overcast
5:20 AM 59.0 °F - 57.2 °F 94% 30.13 in 10.0 mi NNW 9.2 mph - N/A   Overcast
5:57 AM 55.4 °F - 51.8 °F 88% 30.16 in 10.0 mi NNW 8.1 mph - N/A   Overcast
5:59 AM 55.0 °F - 51.1 °F 86% 30.13 in 10.0 mi NNW 6.9 mph - N/A   Overcast
6:27 AM 51.8 °F - 46.4 °F 82% 30.17 in 10.0 mi NNW 11.5 mph - N/A   Overcast
6:57 AM 50.0 °F - 46.0 °F 86% 30.15 in 10.0 mi North 12.7 mph 19.6 mph N/A   Overcast
7:37 AM 48.2 °F - 44.6 °F 87% 30.19 in 9.0 mi NNW 9.2 mph 16.1 mph N/A   Overcast
7:57 AM 48.0 °F - 44.1 °F 86% 30.18 in 9.0 mi North 8.1 mph 18.4 mph N/A   Overcast
8:49 AM 48.2 °F - 44.6 °F 87% 30.20 in 10.0 mi North 9.2 mph - N/A   Overcast
8:57 AM 48.9 °F - 44.1 °F 83% 30.19 in 10.0 mi NNW 9.2 mph - N/A   Overcast
9:11 AM 50.0 °F - 44.6 °F 82% 30.20 in 10.0 mi Variable 5.8 mph - N/A   Overcast
9:57 AM 50.0 °F - 44.1 °F 80% 30.20 in 10.0 mi WNW 11.5 mph - N/A   Overcast
10:57 AM 48.0 °F - 43.0 °F 83% 30.23 in 10.0 mi NNW 11.5 mph - N/A   Overcast
11:57 AM 48.0 °F - 43.0 °F 83% 30.22 in 10.0 mi North 8.1 mph - N/A   Overcast
12:57 PM 48.0 °F - 43.0 °F 83% 30.22 in 10.0 mi NNW 8.1 mph - N/A   Overcast
1:57 PM 48.0 °F - 43.0 °F 83% 30.23 in 10.0 mi NNW 6.9 mph - N/A   Overcast
2:57 PM 46.9 °F - 42.1 °F 83% 30.24 in 10.0 mi WNW 13.8 mph 17.3 mph N/A   Overcast
3:22 PM 46.4 °F 40.1 °F 42.8 °F 87% 30.24 in 10.0 mi NNW 15.0 mph 19.6 mph N/A   Overcast
3:57 PM 45.0 °F 39.3 °F 42.1 °F 90% 30.22 in 6.0 mi NNW 11.5 mph - 0.00 in Rain Light Rain
4:57 PM 43.0 °F 36.4 °F 41.0 °F 93% 30.22 in 3.0 mi North 12.7 mph 17.3 mph 0.02 in Rain Light Rain
5:57 PM 41.0 °F 34.7 °F 39.0 °F 93% 30.23 in 5.0 mi North 10.4 mph - 0.04 in Rain Light Rain
6:57 PM 39.9 °F 32.1 °F 37.9 °F 93% 30.25 in 5.0 mi NNW 13.8 mph 20.7 mph 0.03 in Rain Light Rain
7:57 PM 39.0 °F 30.6 °F 37.0 °F 93% 30.26 in 5.0 mi NNW 15.0 mph 19.6 mph 0.02 in Rain Light Rain
8:57 PM 37.0 °F 29.8 °F 36.0 °F 96% 30.27 in 4.0 mi NW 10.4 mph 18.4 mph 0.06 in Rain Light Rain
9:57 PM 36.0 °F 28.0 °F 34.0 °F 93% 30.27 in 6.0 mi NNW 11.5 mph - 0.08 in Rain Light Rain
10:53 PM 35.6 °F 28.0 °F 33.8 °F 93% 30.25 in 4.0 mi North 10.4 mph 19.6 mph 0.16 in Snow Light Snow
10:57 PM 35.1 °F 26.9 °F 33.1 °F 92% 30.27 in 5.0 mi NNW 11.5 mph 18.4 mph 0.17 in Snow Light Snow
11:04 PM 35.6 °F 28.6 °F 33.8 °F 93% 30.26 in 5.0 mi NNW 9.2 mph 16.1 mph 0.03 in Snow Light Snow
11:45 PM 33.8 °F 25.3 °F 30.2 °F 87% 30.24 in 2.5 mi NW 11.5 mph - 0.13 in Snow Light Snow
11:51 PM 33.8 °F 25.3 °F 30.2 °F 87% 30.22 in 3.0 mi North 11.5 mph - 0.14 in Snow Light Snow
11:57 PM 33.1 °F 24.4 °F 30.9 °F 92% 30.25 in 4.0 mi North 11.5 mph - 0.14 in Snow Light Snow